Total_Precipitation_Accumulation
1.12 0.87 0.83 0.83 0.78 0.65 0.65 0.66 0.71 0.73 0.84 0.64 0.52 0.66 0.91 1.07 1.22 1.72 1.53 0.93 1.71 1.66 0.56 0.32 0.28 0.24 0.10 0.20 0.46 0.33 0.69 0.51 0.63 0.40 0.21 0.12 0.11 0.11 0.07 0.14 0.16 0.16 0.28 0.34 0.39 0.39 0.15 0.02 0.12 0.23 0.18 0.04 0.02 0.02
1.33 0.94 0.84 0.78 0.77 0.68 0.62 0.63 0.68 0.70 0.78 0.63 0.50 0.55 0.72 1.14 1.54 2.06 2.13 0.98 1.24 1.66 1.06 0.53 0.30 0.25 0.14 0.16 0.43 0.54 0.39 0.42 0.32 0.44 0.26 0.19 0.17 0.14 0.09 0.11 0.21 0.27 0.08 0.13 0.13 0.09 0.10 0.16 0.18 0.19 0.12 0.11 0.08 0.05
1.39 0.88 0.75 0.65 0.60 0.54 0.51 0.52 0.60 0.70 0.73 0.60 0.62 0.67 0.75 0.97 1.45 2.74 2.16 1.02 2.94 2.78 1.29 0.53 0.35 0.20 0.20 0.10 0.20 0.48 0.36 0.44 0.56 0.53 0.58 0.40 0.22 0.10 0.10 0.13 0.28 0.55 0.46 0.37 0.40 0.32 0.21 0.39 0.28 0.08 0.06 0.15 0.15 0.09
1.23 0.90 0.72 0.63 0.54 0.51 0.54 0.55 0.50 0.63 0.73 0.68 0.74 0.82 0.80 0.95 1.42 2.56 2.34 1.41 2.75 2.24 1.63 0.60 0.31 0.34 0.29 0.20 0.11 0.16 0.22 0.27 0.42 0.67 0.53 0.47 0.23 0.09 0.09 0.15 0.27 0.28 0.57 0.71 0.79 0.62 0.47 0.62 0.63 0.47 0.31 0.11 0.11 0.15
1.12 0.93 0.75 0.61 0.52 0.47 0.45 0.45 0.46 0.55 0.65 0.74 0.80 0.86 1.03 1.16 1.77 2.30 1.83 1.46 1.68 1.79 1.56 0.90 0.31 0.32 0.34 0.35 0.21 0.19 0.26 0.32 0.49 0.82 0.75 0.34 0.19 0.20 0.17 0.37 0.35 0.17 0.43 0.80 1.21 0.93 0.77 0.75 0.40 0.28 0.24 0.20 0.10 0.04
1.05 0.84 0.68 0.45 0.34 0.31 0.33 0.35 0.47 0.57 0.54 0.68 0.81 1.05 1.21 1.56 2.45 3.24 4.53 2.70 1.32 1.63 1.94 1.35 0.63 0.28 0.37 0.47 0.39 0.25 0.28 0.44 0.61 0.67 0.64 0.46 0.30 0.70 0.66 0.54 0.31 0.16 0.19 0.31 0.55 0.85 0.80 0.60 0.33 0.15 0.08 0.04 0.01 0.01
0.91 0.74 0.64 0.46 0.33 0.33 0.39 0.40 0.46 0.51 0.56 0.85 1.12 1.24 1.48 2.01 1.86 1.78 2.19 1.35 0.99 1.78 2.40 1.56 1.15 0.44 0.42 0.63 0.69 0.55 0.53 0.66 0.61 0.69 0.47 0.29 0.31 0.73 1.01 0.77 0.43 0.27 0.25 0.31 0.34 0.37 0.23 0.15 0.11 0.03 0.01 0.01 0.02 0.01
0.86 0.74 0.58 0.44 0.41 0.48 0.50 0.58 0.57 0.59 0.84 1.19 1.48 1.56 2.13 2.29 1.82 1.44 0.72 0.69 0.82 1.71 1.38 1.24 1.29 1.17 0.76 0.80 1.04 0.85 1.01 0.92 0.95 0.73 0.43 0.39 0.46 0.68 0.79 0.27 0.06 0.11 0.13 0.15 0.17 0.13 0.12 0.08 0.04 0.03 0.02 0.03 0.04 0.07
0.59 0.45 0.39 0.40 0.45 0.47 0.54 0.71 0.86 1.09 1.36 1.65 1.91 2.84 3.91 3.35 2.77 1.45 1.04 0.99 1.14 1.40 0.94 0.60 1.04 1.55 1.33 0.97 1.01 1.22 1.01 1.24 0.82 0.57 0.36 0.64 0.67 0.85 0.47 0.08 0.03 0.02 0.02 0.02 0.02 0.03 0.05 0.06 0.06 0.04 0.04 0.06 0.13 0.29
0.41 0.33 0.31 0.37 0.47 0.62 0.81 1.11 1.36 1.62 2.01 2.44 3.10 4.09 4.77 2.66 1.36 1.65 2.59 2.34 2.10 1.29 0.65 0.46 0.62 1.47 1.75 1.50 0.90 1.33 1.30 0.96 0.95 0.48 0.55 0.62 0.72 0.49 0.15 0.05 0.02 0.01 0.00 0.01 0.01 0.02 0.04 0.09 0.12 0.15 0.22 0.29 0.31 0.27
0.45 0.37 0.31 0.37 0.46 0.59 0.74 0.86 1.03 1.38 2.34 3.15 3.64 3.65 2.86 1.89 1.54 2.12 2.35 1.72 1.26 0.67 0.34 0.43 0.49 0.99 1.44 1.48 1.07 1.04 1.31 1.02 0.75 0.74 0.84 0.86 0.49 0.32 0.19 0.11 0.04 0.01 0.01 0.01 0.02 0.03 0.07 0.15 0.31 0.32 0.22 0.16 0.13 0.12
0.58 0.42 0.34 0.36 0.38 0.43 0.42 0.48 0.79 1.29 2.00 2.56 2.61 2.57 2.47 2.38 2.09 1.88 1.66 1.05 0.52 0.42 0.26 0.30 0.37 0.57 1.34 1.62 1.45 1.39 1.44 1.26 0.78 0.69 0.96 0.82 0.49 0.17 0.10 0.10 0.07 0.05 0.05 0.06 0.12 0.19 0.23 0.26 0.23 0.18 0.15 0.15 0.17 0.18
0.72 0.51 0.40 0.39 0.37 0.40 0.38 0.59 0.81 1.00 1.61 1.89 1.78 2.16 2.21 2.32 2.04 1.48 0.88 0.54 0.38 0.48 0.21 0.32 0.36 0.58 0.92 1.46 1.84 1.25 1.48 1.60 0.90 0.90 0.81 0.57 0.39 0.28 0.31 0.30 0.33 0.32 0.29 0.27 0.21 0.17 0.15 0.13 0.10 0.11 0.15 0.21 0.24 0.32
0.60 0.37 0.36 0.38 0.43 0.54 0.59 0.67 0.92 1.39 1.34 1.59 1.72 1.91 1.84 1.59 1.28 0.94 0.57 0.37 0.34 0.30 0.26 0.59 0.34 0.52 0.72 1.09 1.59 1.37 1.46 1.23 1.42 0.85 0.62 0.64 0.73 0.71 0.47 0.36 0.33 0.41 0.43 0.43 0.44 0.41 0.41 0.41 0.48 0.55 0.62 0.73 0.68 0.88
0.35 0.29 0.36 0.45 0.41 0.45 0.67 0.79 0.76 0.88 1.01 1.03 1.01 1.12 1.07 1.17 0.97 0.80 0.67 0.55 0.53 0.47 0.57 0.81 0.84 0.86 0.94 1.21 1.12 0.92 0.87 0.77 0.64 0.70 0.69 0.71 0.77 0.60 0.49 0.51 0.54 0.60 0.62 0.60 0.62 0.62 0.72 0.75 0.68 0.84 0.96 0.93 0.78 0.79
0.50 0.39 0.46 0.44 0.41 0.49 0.52 0.60 0.70 0.79 0.69 0.63 0.70 0.90 0.88 0.84 0.84 0.77 0.75 0.72 0.73 0.77 0.79 0.91 0.91 0.77 0.84 0.72 0.56 0.53 0.51 0.57 0.70 0.61 0.50 0.48 0.53 0.57 0.64 0.67 0.78 0.78 0.68 0.63 0.64 0.60 0.60 0.62 0.57 0.63 0.68 0.65 0.67 0.55
0.73 0.41 0.51 0.37 0.36 0.36 0.42 0.41 0.49 0.49 0.51 0.47 0.79 0.88 0.80 0.71 0.78 0.83 0.77 0.70 0.64 0.60 0.64 0.54 0.48 0.51 0.45 0.37 0.51 0.53 0.68 0.68 0.58 0.65 0.71 0.67 0.70 0.76 0.74 0.78 0.82 0.78 0.70 0.64 0.60 0.58 0.60 0.61 0.44 0.30 0.39 0.57 0.44 0.42
0.92 0.43 0.33 0.27 0.28 0.29 0.32 0.28 0.19 0.11 0.27 0.61 0.69 0.97 0.71 0.81 0.80 0.74 0.70 0.56 0.46 0.38 0.35 0.38 0.28 0.28 0.42 0.47 0.60 0.68 0.71 0.72 0.75 0.76 0.78 0.82 0.79 0.80 0.81 0.82 0.83 0.75 0.65 0.61 0.53 0.53 0.54 0.49 0.37 0.43 0.39 0.38 0.26 0.24
0.93 0.60 0.42 0.44 0.31 0.18 0.14 0.10 0.02 0.15 0.50 0.59 0.70 0.61 0.46 0.55 0.55 0.52 0.40 0.36 0.34 0.27 0.27 0.34 0.36 0.45 0.59 0.66 0.75 0.73 0.75 0.75 0.78 0.74 0.71 0.76 0.76 0.78 0.80 0.75 0.69 0.64 0.50 0.50 0.42 0.40 0.42 0.38 0.36 0.31 0.26 0.17 0.16 0.16
0.95 0.80 0.56 0.30 0.05 0.01 0.01 0.02 0.00 0.08 0.31 0.41 0.37 0.22 0.19 0.27 0.19 0.09 0.07 0.06 0.08 0.10 0.23 0.39 0.71 0.85 0.84 0.91 0.83 0.77 0.79 0.72 0.47 0.43 0.58 0.70 0.78 0.64 0.70 0.63 0.57 0.52 0.40 0.38 0.35 0.33 0.25 0.19 0.19 0.17 0.16 0.16 0.14 0.15
0.80 0.80 0.54 0.26 0.09 0.00 0.01 0.01 0.06 0.08 0.16 0.24 0.18 0.04 0.07 0.03 0.01 0.01 0.00 0.00 0.03 0.17 0.47 0.69 0.70 0.74 0.66 0.71 0.63 0.53 0.52 0.42 0.38 0.34 0.42 0.51 0.63 0.48 0.49 0.52 0.47 0.41 0.34 0.34 0.26 0.27 0.21 0.22 0.22 0.17 0.16 0.13 0.11 0.10
0.42 0.47 0.41 0.35 0.21 0.03 0.00 0.01 0.05 0.04 0.02 0.05 0.04 0.02 0.03 0.04 0.03 0.02 0.01 0.03 0.26 0.53 0.59 0.51 0.51 0.43 0.34 0.42 0.52 0.50 0.58 0.43 0.36 0.32 0.34 0.32 0.36 0.37 0.40 0.45 0.32 0.30 0.28 0.28 0.22 0.19 0.16 0.14 0.12 0.11 0.09 0.08 0.08 0.07
0.29 0.38 0.37 0.37 0.27 0.09 0.06 0.03 0.01 0.02 0.02 0.03 0.03 0.02 0.02 0.03 0.04 0.02 0.05 0.15 0.42 0.52 0.39 0.29 0.29 0.25 0.26 0.34 0.22 0.21 0.26 0.25 0.33 0.40 0.39 0.34 0.32 0.33 0.28 0.29 0.27 0.23 0.19 0.20 0.16 0.14 0.12 0.10 0.07 0.06 0.06 0.06 0.05 0.05
0.31 0.37 0.38 0.31 0.20 0.14 0.05 0.04 0.02 0.02 0.01 0.02 0.02 0.05 0.05 0.04 0.02 0.03 0.09 0.22 0.39 0.27 0.18 0.19 0.19 0.16 0.12 0.10 0.11 0.15 0.17 0.12 0.15 0.18 0.23 0.16 0.14 0.19 0.16 0.15 0.14 0.15 0.15 0.12 0.09 0.06 0.05 0.05 0.05 0.04 0.03 0.04 0.05 0.07
0.41 0.30 0.25 0.20 0.11 0.05 0.03 0.03 0.04 0.03 0.03 0.02 0.04 0.07 0.04 0.03 0.03 0.05 0.10 0.28 0.23 0.22 0.21 0.19 0.14 0.15 0.16 0.17 0.17 0.15 0.13 0.10 0.08 0.09 0.14 0.12 0.12 0.10 0.08 0.07 0.07 0.07 0.04 0.05 0.05 0.05 0.05 0.04 0.04 0.05 0.04 0.06 0.08 0.10
0.29 0.19 0.13 0.08 0.05 0.06 0.04 0.03 0.03 0.04 0.04 0.07 0.09 0.09 0.05 0.06 0.05 0.11 0.18 0.28 0.23 0.23 0.26 0.25 0.20 0.12 0.12 0.11 0.11 0.11 0.10 0.10 0.07 0.06 0.10 0.06 0.07 0.08 0.07 0.06 0.05 0.06 0.05 0.06 0.10 0.09 0.05 0.03 0.04 0.05 0.06 0.06 0.08 0.13
0.12 0.10 0.04 0.05 0.07 0.11 0.11 0.07 0.08 0.10 0.09 0.13 0.11 0.08 0.14 0.13 0.12 0.25 0.30 0.25 0.21 0.23 0.18 0.16 0.10 0.09 0.11 0.11 0.09 0.06 0.03 0.01 0.01 0.03 0.03 0.03 0.03 0.05 0.09 0.15 0.16 0.14 0.06 0.08 0.11 0.13 0.14 0.11 0.09 0.07 0.09 0.08 0.09 0.16
0.07 0.05 0.06 0.10 0.15 0.17 0.18 0.16 0.18 0.21 0.21 0.20 0.16 0.13 0.15 0.14 0.26 0.38 0.34 0.32 0.23 0.14 0.09 0.06 0.03 0.03 0.04 0.05 0.05 0.05 0.03 0.02 0.01 0.01 0.03 0.07 0.08 0.08 0.09 0.11 0.11 0.08 0.08 0.09 0.10 0.10 0.13 0.16 0.14 0.13 0.13 0.16 0.18 0.19
0.12 0.16 0.13 0.12 0.08 0.08 0.14 0.17 0.18 0.19 0.18 0.16 0.12 0.13 0.15 0.22 0.36 0.33 0.29 0.19 0.14 0.09 0.06 0.07 0.10 0.07 0.04 0.02 0.02 0.02 0.02 0.02 0.03 0.03 0.02 0.06 0.13 0.11 0.07 0.08 0.08 0.07 0.08 0.07 0.06 0.10 0.14 0.17 0.15 0.17 0.23 0.23 0.19 0.17
0.07 0.07 0.05 0.03 0.05 0.11 0.18 0.13 0.13 0.10 0.05 0.04 0.04 0.10 0.14 0.36 0.53 0.30 0.17 0.12 0.12 0.12 0.11 0.09 0.09 0.05 0.05 0.04 0.03 0.05 0.09 0.05 0.07 0.10 0.10 0.10 0.11 0.10 0.08 0.08 0.08 0.08 0.08 0.08 0.07 0.05 0.07 0.07 0.08 0.16 0.12 0.09 0.11 0.14
0.01 0.02 0.02 0.02 0.10 0.16 0.13 0.08 0.08 0.08 0.07 0.05 0.04 0.05 0.19 0.31 0.34 0.30 0.19 0.17 0.08 0.06 0.06 0.04 0.03 0.03 0.03 0.04 0.05 0.06 0.10 0.08 0.08 0.08 0.09 0.09 0.08 0.08 0.07 0.06 0.06 0.07 0.06 0.06 0.06 0.07 0.07 0.07 0.10 0.11 0.07 0.07 0.08 0.08
0.02 0.03 0.01 0.03 0.12 0.11 0.16 0.15 0.10 0.12 0.10 0.06 0.10 0.07 0.12 0.10 0.11 0.16 0.18 0.13 0.07 0.07 0.06 0.07 0.07 0.09 0.09 0.09 0.09 0.10 0.09 0.08 0.06 0.07 0.08 0.09 0.08 0.08 0.06 0.05 0.06 0.06 0.06 0.06 0.07 0.09 0.09 0.08 0.09 0.08 0.09 0.07 0.07 0.06
0.02 0.02 0.02 0.02 0.06 0.08 0.09 0.08 0.05 0.06 0.06 0.08 0.13 0.15 0.14 0.09 0.11 0.17 0.15 0.13 0.17 0.12 0.09 0.10 0.10 0.11 0.11 0.07 0.06 0.07 0.05 0.06 0.06 0.07 0.07 0.08 0.06 0.05 0.04 0.04 0.05 0.05 0.05 0.06 0.07 0.09 0.07 0.07 0.07 0.07 0.06 0.06 0.05 0.05